WA4ISB-1 Sarasota FL US current weather conditions

sailwx.info

Wind from 168 at 1 knots gusting 7

Air temperature 21.1° C
Dewpoint 19.2° C

Last reported at 2019-Dec-13 00:50 UTC.
Time now 2019-Dec-13 02:08 UTC

Location: N 27°21' W 082°30'.
View on Google Maps.

See reports from other nearby stations

  
Tides and Currents Weather Stations Pressure Air Temp Water Temp Dewpoint Dewpoint Depression Visibility Wind Speed Wind Dir Waves Ship Positions
date/time (UTC)wind fromknots sea level pressurealtimeterstation pressurevisibilityair tempwater tempwave heightnotes
2019-Dec-13 00:50 168 1 gusting 7 21.1
2019-Dec-13 00:40 098 2 gusting 7 21.1
2019-Dec-13 00:30 054 1 gusting 6 21.1
2019-Dec-13 00:25 240 5 gusting 6 21.1
2019-Dec-13 00:20 109 3 gusting 6 21.7
2019-Dec-13 00:15 019 2 gusting 6 21.7
2019-Dec-13 00:10 080 4 gusting 7 21.7
2019-Dec-13 00:05 033 4 gusting 9 21.7
2019-Dec-12 23:55 358 2 gusting 6 21.7
2019-Dec-12 23:50 105 0 gusting 7 22.2
2019-Dec-12 23:45 345 2 gusting 6 22.2
2019-Dec-12 23:40 025 3 gusting 6 22.2
2019-Dec-12 23:35 357 0 gusting 6 22.8
2019-Dec-12 23:30 014 0 gusting 7 22.8
2019-Dec-12 23:25 066 2 gusting 7 22.8
2019-Dec-12 23:20 039 2 gusting 7 22.8
2019-Dec-12 23:15 014 1 gusting 8 22.8
2019-Dec-12 23:10 033 2 gusting 6 22.8
2019-Dec-12 23:05 018 2 gusting 7 22.8
2019-Dec-12 23:00 119 1 gusting 5 22.8
2019-Dec-12 22:55 140 0 gusting 6 22.8
2019-Dec-12 22:45 071 5 gusting 6 22.8
2019-Dec-12 22:40 030 1 gusting 8 22.8
2019-Dec-12 22:34 053 3 gusting 10 23.3
2019-Dec-12 22:29 223 0 gusting 9 23.3
2019-Dec-12 22:19 050 2 gusting 13 23.9
2019-Dec-12 22:14 322 1 gusting 6 23.9
2019-Dec-12 22:09 007 1 gusting 8 24.4
2019-Dec-12 22:02 084 5 gusting 7 24.4
2019-Dec-12 21:59 084 5 gusting 7 24.4
2019-Dec-12 21:54 070 5 gusting 6 23.9
2019-Dec-12 21:49 130 0 gusting 6 24.4
2019-Dec-12 21:44 24.4
2019-Dec-12 21:39 142 2 gusting 8 24.4
2019-Dec-12 21:34 011 8 gusting 10 24.4
2019-Dec-12 21:29 014 2 gusting 9 24.4
2019-Dec-12 21:14 212 5 gusting 10 24.4
2019-Dec-12 20:59 095 2 gusting 8 24.4
2019-Dec-12 20:34 052 4 gusting 6 23.9
2019-Dec-12 20:29 030 3 gusting 8 23.9
2019-Dec-12 20:24 095 2 gusting 9 23.9
2019-Dec-12 20:19 099 7 gusting 11 23.9
2019-Dec-12 20:14 008 4 gusting 8 23.3
2019-Dec-12 20:09 063 0 gusting 10 23.3
2019-Dec-12 20:04 070 2 gusting 7 23.3
2019-Dec-12 19:59 018 3 gusting 6 23.3
2019-Dec-12 19:54 061 4 gusting 7 23.3
2019-Dec-12 19:49 130 1 gusting 8 23.3
2019-Dec-12 19:44 109 5 gusting 15 23.3
2019-Dec-12 19:39 081 2 gusting 13 23.9
2019-Dec-12 19:34 182 4 gusting 13 25.0
2019-Dec-12 19:29 092 0 gusting 10 25.6
2019-Dec-12 19:24 140 3 gusting 8 25.6
2019-Dec-12 19:19 354 1 gusting 10 25.6
2019-Dec-12 19:14 101 7 gusting 10 25.6
2019-Dec-12 19:09 147 2 gusting 10 25.6
2019-Dec-12 19:04 026 5 gusting 8 25.6
2019-Dec-12 18:59 022 2 gusting 7 25.6
2019-Dec-12 18:54 343 0 gusting 8 25.6
2019-Dec-12 18:49 067 6 gusting 7 25.6
2019-Dec-12 18:44 054 5 gusting 9 25.6
2019-Dec-12 18:39 068 5 gusting 12 25.6
2019-Dec-12 18:34 091 6 gusting 7 25.6
2019-Dec-12 18:24 175 1 gusting 8 25.6
2019-Dec-12 18:19 175 5 gusting 12 25.6
2019-Dec-12 18:14 223 1 gusting 8 25.0
2019-Dec-12 18:09 049 6 gusting 7 25.0
2019-Dec-12 18:04 014 5 gusting 12 25.0
2019-Dec-12 17:59 043 0 gusting 10 25.0
2019-Dec-12 17:54 188 5 gusting 12 25.0
2019-Dec-12 17:49 137 5 gusting 8 25.0
2019-Dec-12 17:44 070 3 gusting 12 25.0
2019-Dec-12 17:39 358 5 gusting 11 25.0
2019-Dec-12 17:34 074 6 gusting 11 25.0
2019-Dec-12 17:29 073 9 gusting 11 25.0
2019-Dec-12 17:24 143 0 gusting 9 25.6
2019-Dec-12 17:19 036 5 gusting 10 25.0
2019-Dec-12 17:14 147 4 gusting 13 25.0
2019-Dec-12 17:09 084 3 gusting 9 25.0
2019-Dec-12 17:04 226 2 gusting 9 24.4
2019-Dec-12 16:51 358 4 gusting 6 23.9
2019-Dec-12 16:49 358 4 gusting 6 23.9
2019-Dec-12 16:44 074 4 gusting 10 23.9
2019-Dec-12 16:39 037 8 gusting 10 23.9
2019-Dec-12 16:24 341 3 gusting 7 23.9
2019-Dec-12 16:14 054 4 gusting 13 23.9
2019-Dec-12 15:59 149 3 gusting 8 23.3
2019-Dec-12 15:49 029 1 gusting 9 23.3
2019-Dec-12 15:44 008 4 gusting 10 22.8
2019-Dec-12 15:39 056 1 gusting 8 23.3
2019-Dec-12 15:34 234 2 gusting 10 22.8
2019-Dec-12 15:29 129 1 gusting 8 22.8
2019-Dec-12 15:22 123 6 gusting 8 22.8
2019-Dec-12 15:19 123 6 gusting 8 22.8
2019-Dec-12 15:14 090 4 gusting 10 22.8
2019-Dec-12 15:09 026 2 gusting 6 22.2
2019-Dec-12 15:04 101 2 gusting 7 22.2
2019-Dec-12 14:59 078 1 gusting 8 22.2
2019-Dec-12 14:54 016 5 gusting 7 21.7
2019-Dec-12 14:49 305 1 gusting 8 21.7
2019-Dec-12 14:44 116 3 gusting 8 21.7
2019-Dec-12 14:39 347 5 gusting 6 21.7
2019-Dec-12 14:33 358 2 gusting 6 21.7
2019-Dec-12 14:29 358 2 gusting 6 21.7
2019-Dec-12 14:24 002 2 gusting 9 21.7
2019-Dec-12 14:19 073 5 gusting 7 21.1
2019-Dec-12 14:14 001 4 gusting 9 21.1
2019-Dec-12 14:04 060 6 gusting 7 21.1
2019-Dec-12 13:59 050 6 gusting 8 20.6
2019-Dec-12 13:54 070 2 gusting 6 20.6
2019-Dec-12 13:49 060 4 gusting 8 20.6
2019-Dec-12 13:44 355 2 gusting 8 20.6
2019-Dec-12 13:39 052 8 gusting 10 20.6
2019-Dec-12 13:34 336 3 gusting 7 20.6
2019-Dec-12 13:29 042 4 gusting 6 20.0
2019-Dec-12 13:24 029 3 gusting 7 20.0
2019-Dec-12 13:19 358 3 gusting 10 20.0
2019-Dec-12 13:14 043 4 gusting 6 20.0
2019-Dec-12 13:09 012 4 gusting 9 20.0
2019-Dec-12 13:04 049 1 gusting 7 20.0
2019-Dec-12 12:58 057 4 gusting 6 20.0
2019-Dec-12 12:54 057 4 gusting 6 20.0
2019-Dec-12 12:46 355 1 gusting 5 20.0
2019-Dec-12 12:44 355 1 gusting 5 20.0
2019-Dec-12 12:39 064 4 gusting 8 20.0
2019-Dec-12 12:34 022 3 gusting 6 20.0
2019-Dec-12 12:29 115 3 gusting 6 20.0
2019-Dec-12 12:24 011 2 gusting 8 20.0
2019-Dec-12 12:19 253 2 gusting 7 20.0
2019-Dec-12 12:14 066 3 gusting 8 20.0
2019-Dec-12 12:09 066 3 gusting 8 20.0
2019-Dec-12 12:04 067 2 gusting 9 20.0
2019-Dec-12 11:59 182 0 gusting 7 20.0
2019-Dec-12 11:54 004 7 gusting 7 20.0
2019-Dec-12 11:49 011 0 gusting 6 20.0
2019-Dec-12 11:39 035 1 gusting 7 20.0
2019-Dec-12 11:34 037 5 gusting 7 20.0
2019-Dec-12 11:29 337 1 gusting 8 19.4
2019-Dec-12 11:24 087 2 gusting 7 19.4
2019-Dec-12 11:19 004 2 gusting 6 20.0
2019-Dec-12 11:14 039 3 gusting 11 20.0
2019-Dec-12 11:09 053 2 gusting 5 19.4
2019-Dec-12 11:04 077 4 gusting 8 19.4
2019-Dec-12 10:59 035 3 gusting 8 19.4
2019-Dec-12 10:54 355 6 gusting 6 19.4
2019-Dec-12 10:49 012 1 gusting 6 19.4
2019-Dec-12 10:44 073 5 gusting 7 19.4
2019-Dec-12 10:39 021 5 gusting 6 19.4
2019-Dec-12 10:34 021 5 gusting 6 19.4
2019-Dec-12 10:19 021 4 gusting 7 19.4
2019-Dec-12 10:02 036 2 gusting 7 20.0
2019-Dec-12 09:59 036 2 gusting 7 20.0
2019-Dec-12 09:34 081 3 gusting 8 20.0
2019-Dec-12 09:24 012 1 gusting 9 20.0
2019-Dec-12 09:19 099 1 gusting 6 20.0
2019-Dec-12 09:14 067 3 gusting 6 20.0
2019-Dec-12 09:09 170 20.0
2019-Dec-12 09:04 032 5 gusting 11 19.4
2019-Dec-12 08:59 333 10 gusting 10 19.4
2019-Dec-12 08:49 023 6 gusting 8 19.4
2019-Dec-12 08:44 040 3 gusting 8 19.4
2019-Dec-12 08:34 029 2 gusting 11 19.4
2019-Dec-12 08:19 057 2 gusting 8 19.4
2019-Dec-12 08:14 021 4 gusting 8 19.4
2019-Dec-12 08:04 077 4 gusting 9 18.9
2019-Dec-12 07:59 108 3 gusting 10 18.9
2019-Dec-12 07:54 234 1 gusting 6 18.9
2019-Dec-12 07:49 165 3 gusting 8 19.4
2019-Dec-12 07:29 049 2 gusting 8 18.9
2019-Dec-12 07:24 181 2 gusting 6 18.9
2019-Dec-12 06:54 077 5 gusting 8 18.9
2019-Dec-12 06:44 125 2 gusting 7 18.9
2019-Dec-12 06:39 187 6 gusting 7 18.9
2019-Dec-12 06:29 066 5 gusting 9 18.9
2019-Dec-12 06:24 329 0 gusting 8 18.9
2019-Dec-12 06:19 039 6 gusting 7 18.9
2019-Dec-12 06:14 073 1 gusting 7 18.9
2019-Dec-12 06:09 004 3 gusting 13 18.9
2019-Dec-12 06:01 043 1 gusting 10 18.9
2019-Dec-12 05:59 043 1 gusting 10 18.9
2019-Dec-12 05:54 023 2 gusting 7 18.9
2019-Dec-12 05:49 047 2 gusting 7 18.9
2019-Dec-12 05:44 025 3 gusting 9 18.9
2019-Dec-12 05:39 033 7 gusting 7 18.9
2019-Dec-12 05:34 035 2 gusting 10 18.9
2019-Dec-12 05:28 050 3 gusting 8 18.9
2019-Dec-12 05:24 046 1 gusting 9 18.9
2019-Dec-12 05:18 045 6 gusting 13 18.9
2019-Dec-12 05:12 060 5 gusting 10 18.9
2019-Dec-12 05:08 060 5 gusting 10 18.9
2019-Dec-12 05:03 354 2 gusting 12 18.9
2019-Dec-12 04:58 358 3 gusting 11 18.9
2019-Dec-12 04:53 002 2 gusting 11 18.9
2019-Dec-12 04:48 337 4 gusting 11 18.9
2019-Dec-12 04:43 098 6 gusting 11 18.9
2019-Dec-12 04:38 060 6 gusting 10 18.9
2019-Dec-12 04:33 039 5 gusting 8 18.9
2019-Dec-12 04:28 040 3 gusting 8 18.9
2019-Dec-12 04:23 042 2 gusting 10 18.9
2019-Dec-12 04:18 025 4 gusting 9 18.9
2019-Dec-12 04:13 025 5 gusting 11 18.9
2019-Dec-12 04:08 358 2 gusting 7 18.9
2019-Dec-12 04:03 144 4 gusting 10 18.9
2019-Dec-12 03:58 061 3 gusting 7 18.9
2019-Dec-12 03:53 043 6 gusting 10 18.9
2019-Dec-12 03:48 043 6 gusting 10 18.9
2019-Dec-12 03:38 056 3 gusting 8 19.4
2019-Dec-12 03:32 030 6 gusting 10 18.9
2019-Dec-12 03:28 030 6 gusting 10 18.9
2019-Dec-12 03:22 023 4 gusting 8 18.9
2019-Dec-12 03:18 023 4 gusting 8 18.9
2019-Dec-12 03:08 345 1 gusting 9 19.4
2019-Dec-12 02:58 358 6 gusting 10 19.4
2019-Dec-12 02:53 030 6 gusting 7 19.4
2019-Dec-12 02:48 108 6 gusting 10 19.4
2019-Dec-12 02:43 084 8 gusting 11 19.4
2019-Dec-12 02:38 011 1 gusting 7 19.4
2019-Dec-12 02:33 074 5 gusting 9 19.4
2019-Dec-12 02:28 028 4 gusting 13 19.4
2019-Dec-12 02:23 127 3 gusting 11 20.0
2019-Dec-12 02:18 070 4 gusting 9 20.0
2019-Dec-12 02:13 094 4 gusting 11 20.0
2019-Dec-12 02:08 052 6 gusting 11 20.0
2019-Dec-12 01:58 156 1 gusting 13 20.0
2019-Dec-12 01:53 047 4 gusting 12 20.0
2019-Dec-12 01:43 043 3 gusting 11 20.6
2019-Dec-12 01:38 092 2 gusting 9 20.6
2019-Dec-12 01:33 147 3 gusting 9 21.1
2019-Dec-12 01:23 012 3 gusting 9 21.1
2019-Dec-12 01:08 023 5 gusting 9 21.7
2019-Dec-12 00:53 035 4 gusting 15 22.2
2019-Dec-12 00:43 052 4 gusting 12 22.8
2019-Dec-12 00:38 043 6 gusting 13 22.8
2019-Dec-12 00:23 016 8 gusting 12 23.9
2019-Dec-12 00:18 064 6 gusting 12 23.9
2019-Dec-12 00:13 042 6 gusting 15 24.4
2019-Dec-12 00:08 021 6 gusting 12 24.4
2019-Dec-11 23:58 071 6 gusting 11 24.4
2019-Dec-11 23:53 094 3 gusting 8 24.4
2019-Dec-11 23:28 035 0 gusting 3 23.9
2019-Dec-11 23:23 338 0 gusting 2 24.4
2019-Dec-11 23:18 336 24.4
2019-Dec-11 23:13 347 1 gusting 2 24.4
2019-Dec-11 23:08 030 1 gusting 3 24.4
2019-Dec-11 23:03 285 24.4
2019-Dec-11 22:58 352 24.4
2019-Dec-11 22:53 352 25.0
2019-Dec-11 22:38 307 0 gusting 2 25.0
2019-Dec-11 22:33 351 25.0
2019-Dec-11 22:26 336 0 gusting 3 25.0
2019-Dec-11 22:23 336 0 gusting 3 25.0
2019-Dec-11 22:18 317 25.6
2019-Dec-11 22:13 009 2 gusting 4 25.6
2019-Dec-11 21:58 271 25.6
2019-Dec-11 21:53 054 1 gusting 4 25.6
2019-Dec-11 21:48 046 0 gusting 3 25.6
2019-Dec-11 21:43 009 0 gusting 3 25.6
2019-Dec-11 21:38 327 25.6
2019-Dec-11 21:32 329 0 gusting 3 25.6
2019-Dec-11 21:28 329 0 gusting 3 25.6
2019-Dec-11 21:23 340 26.1
2019-Dec-11 21:18 002 0 gusting 2 26.1
2019-Dec-11 21:13 330 1 gusting 5 26.1
2019-Dec-11 21:05 315 0 gusting 4 26.1
2019-Dec-11 21:03 315 0 gusting 4 26.1
2019-Dec-11 20:58 087 1 gusting 6 26.1
2019-Dec-11 20:53 068 1 gusting 6 26.1
2019-Dec-11 20:48 260 0 gusting 5 26.1
2019-Dec-11 20:43 310 0 gusting 5 26.7
2019-Dec-11 20:38 302 0 gusting 4 26.7
2019-Dec-11 20:33 164 0 gusting 6 26.7
2019-Dec-11 20:28 357 2 gusting 6 26.7
2019-Dec-11 20:23 319 1 gusting 4 26.7
2019-Dec-11 20:15 194 0 gusting 6 26.7
2019-Dec-11 20:13 194 0 gusting 6 26.7
2019-Dec-11 20:08 327 2 gusting 8 26.7
2019-Dec-11 20:03 160 26.7
2019-Dec-11 19:56 291 26.7
2019-Dec-11 19:53 291 26.7
2019-Dec-11 19:48 172 27.2
2019-Dec-11 19:43 040 27.2
2019-Dec-11 19:38 151 27.2
2019-Dec-11 19:33 337 0 gusting 6 27.2
2019-Dec-11 19:28 241 1 gusting 5 27.2
2019-Dec-11 19:23 286 27.2
2019-Dec-11 19:18 225 27.2
2019-Dec-11 19:13 281 1 gusting 4 27.2
2019-Dec-11 19:08 253 1 gusting 3 27.2
2019-Dec-11 19:04 217 27.2
2019-Dec-11 18:58 288 0 gusting 4 27.2
2019-Dec-11 18:53 234 27.2
2019-Dec-11 18:48 272 0 gusting 5 27.2
2019-Dec-11 18:43 215 0 gusting 4 27.2
2019-Dec-11 18:38 262 2 gusting 6 27.2
2019-Dec-11 18:33 293 0 gusting 5 27.2
2019-Dec-11 18:28 337 27.8
2019-Dec-11 18:23 319 0 gusting 3 27.8
2019-Dec-11 18:18 289 0 gusting 0 27.8
2019-Dec-11 18:13 206 27.8
2019-Dec-11 18:08 205 27.2
2019-Dec-11 18:03 210 0 gusting 4 27.2
2019-Dec-11 17:58 261 27.2
2019-Dec-11 17:53 237 0 gusting 2 27.2
2019-Dec-11 17:48 215 0 gusting 4 27.2
2019-Dec-11 17:43 279 0 gusting 5 27.2
2019-Dec-11 17:38 336 27.2
2019-Dec-11 17:35 057 27.2
2019-Dec-11 17:28 292 1 gusting 5 26.7
2019-Dec-11 17:23 271 27.2
2019-Dec-11 17:18 279 1 gusting 6 27.2
2019-Dec-11 17:13 345 3 gusting 4 27.8
2019-Dec-11 17:08 281 27.2
2019-Dec-11 17:03 212 27.2
2019-Dec-11 16:58 196 27.8
2019-Dec-11 16:53 251 0 gusting 3 27.2
2019-Dec-11 16:48 198 1 gusting 2 27.2
2019-Dec-11 16:43 160 0 gusting 1 27.2
2019-Dec-11 16:38 098 27.2
2019-Dec-11 16:33 234 27.2
2019-Dec-11 16:28 260 27.2
2019-Dec-11 16:23 199 0 gusting 5 26.7
2019-Dec-11 16:18 240 26.7
2019-Dec-11 16:13 298 0 gusting 5 26.7
2019-Dec-11 16:08 153 2 gusting 5 26.1
2019-Dec-11 16:03 191 1 gusting 4 26.1
2019-Dec-11 15:58 157 2 gusting 3 25.6
2019-Dec-11 15:53 195 1 gusting 2 25.0
2019-Dec-11 15:48 053 24.4
2019-Dec-11 15:43 070 24.4
2019-Dec-11 15:38 215 0 gusting 2 23.9
2019-Dec-11 15:33 198 1 gusting 2 23.9
2019-Dec-11 15:28 187 1 gusting 1 23.9
2019-Dec-11 15:23 158 1 gusting 2 23.9
2019-Dec-11 15:18 178 23.9
2019-Dec-11 15:13 178 23.3
2019-Dec-11 15:08 182 0 gusting 1 23.3
2019-Dec-11 15:03 196 23.3
2019-Dec-11 15:00 172 23.3
2019-Dec-11 14:53 172 23.3
2019-Dec-11 14:48 172 22.8
2019-Dec-11 14:43 172 22.8
2019-Dec-11 14:38 175 22.8
2019-Dec-11 14:33 188 1 gusting 2 22.8
2019-Dec-11 14:28 188 1 gusting 2 22.8
2019-Dec-11 14:23 156 1 gusting 2 22.8
2019-Dec-11 14:18 151 22.8
2019-Dec-11 14:13 151 22.2
2019-Dec-11 14:08 151 22.2
2019-Dec-11 14:03 151 21.7
2019-Dec-11 13:58 151 21.7
2019-Dec-11 13:53 151 21.7
2019-Dec-11 13:48 151 21.7
2019-Dec-11 13:43 151 21.7
2019-Dec-11 13:38 151 21.1
2019-Dec-11 13:33 151 21.1
2019-Dec-11 13:28 151 21.1
2019-Dec-11 13:25 151 21.1
2019-Dec-11 13:18 177 1 gusting 2 20.6
2019-Dec-11 13:13 147 20.6
2019-Dec-11 13:08 147 20.6
2019-Dec-11 13:03 147 20.6
2019-Dec-11 12:58 097 20.6
2019-Dec-11 12:53 163 20.0
2019-Dec-11 12:48 163 20.0
2019-Dec-11 12:43 163 20.0
2019-Dec-11 12:38 163 20.0
2019-Dec-11 12:33 163 20.0
2019-Dec-11 12:27 163 20.0
2019-Dec-11 12:23 163 20.0
2019-Dec-11 12:18 163 20.0
2019-Dec-11 12:13 163 20.0
2019-Dec-11 12:07 163 20.0
2019-Dec-11 12:03 163 20.0
2019-Dec-11 11:57 163 20.0
2019-Dec-11 11:52 163 20.0
2019-Dec-11 11:47 163 20.0
2019-Dec-11 11:42 163 20.0
2019-Dec-11 11:37 163 20.0
2019-Dec-11 11:32 163 20.0
2019-Dec-11 11:27 163 20.0
2019-Dec-11 11:22 163 20.0
2019-Dec-11 11:17 163 20.0
2019-Dec-11 11:12 163 20.0
2019-Dec-11 11:07 163 20.0
2019-Dec-11 11:02 163 20.0
2019-Dec-11 10:57 163 20.0
2019-Dec-11 10:52 163 20.0
2019-Dec-11 10:47 163 20.0
2019-Dec-11 10:42 163 20.6
2019-Dec-11 10:37 163 20.6
2019-Dec-11 10:32 163 20.6
2019-Dec-11 10:27 163 20.6
2019-Dec-11 10:22 163 20.6
2019-Dec-11 10:17 163 20.6
2019-Dec-11 10:12 163 20.6
2019-Dec-11 10:07 163 20.6
2019-Dec-11 10:02 163 20.6
2019-Dec-11 09:57 163 20.6
2019-Dec-11 09:52 163 20.6
2019-Dec-11 09:47 163 20.6
2019-Dec-11 09:42 163 20.6
2019-Dec-11 09:37 163 20.6
2019-Dec-11 09:32 163 20.6
2019-Dec-11 09:22 163 20.6
2019-Dec-11 09:12 108 21.1
2019-Dec-11 09:02 144 21.1
2019-Dec-11 08:57 144 21.1
2019-Dec-11 08:47 144 21.1
2019-Dec-11 08:42 082 21.1
2019-Dec-11 08:37 135 21.1
2019-Dec-11 08:32 142 1 gusting 1 21.1
2019-Dec-11 08:27 142 21.1
2019-Dec-11 08:22 177 21.1
2019-Dec-11 08:17 146 21.1
2019-Dec-11 08:12 146 21.1
2019-Dec-11 08:07 165 21.1
2019-Dec-11 08:02 143 21.1
2019-Dec-11 07:57 137 21.1
2019-Dec-11 07:52 149 21.1
2019-Dec-11 07:47 174 0 gusting 1 21.1
2019-Dec-11 07:42 150 21.1
2019-Dec-11 07:37 150 21.7
2019-Dec-11 07:32 150 21.7
2019-Dec-11 07:27 150 21.1
2019-Dec-11 07:22 150 21.7
2019-Dec-11 07:17 150 21.7
2019-Dec-11 07:12 150 21.7
2019-Dec-11 07:07 150 21.7
2019-Dec-11 07:04 150 21.7
2019-Dec-11 06:57 150 21.7
2019-Dec-11 06:52 150 21.7
2019-Dec-11 06:42 150 22.2
2019-Dec-11 06:34 150 22.2
2019-Dec-11 06:27 150 22.2
2019-Dec-11 06:22 150 22.2
2019-Dec-11 06:17 150 22.2
2019-Dec-11 06:12 150 22.2
2019-Dec-11 06:07 150 22.8
2019-Dec-11 06:02 150 22.8
2019-Dec-11 05:57 150 22.8
2019-Dec-11 05:52 150 22.8
2019-Dec-11 05:47 150 22.8
2019-Dec-11 05:42 150 22.8
2019-Dec-11 05:37 150 22.8
2019-Dec-11 05:32 153 22.8
2019-Dec-11 05:27 194 22.8
2019-Dec-11 05:22 163 22.8
2019-Dec-11 05:17 212 22.8
2019-Dec-11 05:12 209 22.8
2019-Dec-11 05:07 171 22.8
2019-Dec-11 05:02 217 22.8
2019-Dec-11 04:57 177 22.8
2019-Dec-11 04:52 194 22.8
2019-Dec-11 04:47 149 23.3
2019-Dec-11 04:42 182 0 gusting 1 22.8
2019-Dec-11 04:37 206 23.3
2019-Dec-11 04:32 206 23.3
2019-Dec-11 04:30 206 23.3
2019-Dec-11 04:22 212 23.3
2019-Dec-11 04:17 230 23.3
2019-Dec-11 04:15 234 23.3
2019-Dec-11 04:09 202 2 gusting 4 23.3
2019-Dec-11 04:02 198 3 gusting 3 23.3
2019-Dec-11 03:57 187 23.3
2019-Dec-11 03:52 189 23.3
2019-Dec-11 03:47 216 23.3
2019-Dec-11 03:44 202 23.3
2019-Dec-11 03:37 187 2 gusting 6 23.3
2019-Dec-11 03:35 182 2 gusting 5 23.3
2019-Dec-11 03:27 275 1 gusting 4 23.3
2019-Dec-11 03:17 213 2 gusting 3 23.3
2019-Dec-11 03:12 208 23.3
2019-Dec-11 03:09 206 23.3
2019-Dec-11 03:02 191 23.3
2019-Dec-11 02:58 234 0 gusting 2 23.3
2019-Dec-11 02:52 192 23.3
2019-Dec-11 02:47 210 2 gusting 2 23.3
2019-Dec-11 02:42 232 0 gusting 3 23.3
2019-Dec-11 02:37 199 23.3
2019-Dec-11 02:32 210 1 gusting 2 23.3
2019-Dec-11 02:27 208 1 gusting 1 23.3
2019-Dec-11 02:24 222 0 gusting 1 23.3
2019-Dec-11 02:17 195 0 gusting 2 23.3
2019-Dec-11 02:15 187 23.3
2019-Dec-11 02:07 208 23.3
2019-Dec-11 02:02 268 23.3